Weather History for KPUC - May, 2013

Change the Weather History Date:

Friday, May 31, 2013

  Actual Average Record
Temperature  
Mean Temperature 60 °F -  
Max Temperature 72 °F 76 °F 95 °F (2002)
Min Temperature 48 °F 46 °F 31 °F (1988)
Degree Days  
Heating Degree Days 6    
Growing Degree Days 10 (Base 50)    
Moisture  
Dew Point 15 °F    
Average Humidity 21    
Maximum Humidity 41    
Minimum Humidity 6    
Precipitation  
Precipitation 0.00 in - - ()
Sea Level Pressure  
Sea Level Pressure 29.98 in    
Wind  
Wind Speed 10 mph (NW)    
Max Wind Speed 22 mph    
Max Gust Speed 31 mph    
Visibility 10 miles    
Events      
Averages and records for this station are not official NWS values.
T = Trace of Precipitation, MM = Missing Value Source: NWS Daily Summary

Daily Weather History Graph

Daily Weather History Graph

Search for Another Location

Airport or City:

Trip Planner

Search our weather history database for the weather conditions in past years. The results will help you decide how hot, cold, wet, or windy it might be!

Date:

Astronomy

May. 31, 2013 Rise Set
Actual Time 5:57 AM MDT 8:44 PM MDT
Civil Twilight 5:25 AM MDT 9:16 PM MDT
Nautical Twilight 4:46 AM MDT 9:56 PM MDT
Astronomical Twilight 4:00 AM MDT 10:41 PM MDT
Moon 1:21 AM MDT (5/31) 1:15 PM MDT (5/31)
Length of Visible Light 15h 50m
Length of Day
14h 46m
Waning Gibbous, 51% of the Moon is Illuminated
May 31
Waning Gibbous
May 31
Last Quarter
Jun 8
New
Jun 16
First Quarter
Jun 23
Full

Hourly Weather History & Observations

Time (MDT) Temp. Dew Point Humidity Pressure Visibility Wind Dir Wind Speed Gust Speed Precip Events Conditions
12:53 AM 52.0 °F 24.1 °F 34% 29.86 in 10.0 mi NW 3.5 mph - N/A   Clear
1:53 AM 48.9 °F 23.0 °F 36% 29.88 in 10.0 mi NW 5.8 mph - N/A   Clear
2:53 AM 53.1 °F 21.9 °F 30% 29.87 in 10.0 mi NW 10.4 mph - N/A   Clear
3:53 AM 52.0 °F 21.9 °F 31% 29.91 in 10.0 mi NW 11.5 mph - N/A   Clear
4:53 AM 50.0 °F 23.0 °F 35% 29.92 in 10.0 mi NW 9.2 mph - N/A   Clear
5:53 AM 50.0 °F 25.0 °F 38% 29.94 in 10.0 mi NNW 10.4 mph - N/A   Clear
6:53 AM 50.0 °F 27.0 °F 41% 29.97 in 10.0 mi WNW 5.8 mph - N/A   Clear
7:53 AM 55.0 °F 28.0 °F 35% 29.97 in 10.0 mi WNW 11.5 mph - N/A   Clear
8:53 AM 57.9 °F 26.1 °F 30% 29.99 in 10.0 mi NNW 12.7 mph 18.4 mph N/A   Clear
9:53 AM 60.1 °F 23.0 °F 24% 30.00 in 10.0 mi NW 9.2 mph 20.7 mph N/A   Clear
10:53 AM 63.0 °F 21.9 °F 21% 30.00 in 10.0 mi WNW 15.0 mph 23.0 mph N/A   Clear
11:53 AM 66.0 °F 12.0 °F 12% 29.98 in 10.0 mi NW 20.7 mph 31.1 mph N/A   Clear
12:53 PM 69.1 °F 8.1 °F 9% 29.97 in 10.0 mi WNW 21.9 mph 29.9 mph N/A   Clear
1:53 PM 70.0 °F 9.0 °F 9% 29.98 in 10.0 mi NW 16.1 mph 31.1 mph N/A   Clear
2:53 PM 71.1 °F 3.9 °F 7% 29.97 in 10.0 mi WNW 15.0 mph 23.0 mph N/A   Clear
3:53 PM 70.0 °F -0.9 °F 6% 29.97 in 10.0 mi NW 21.9 mph 29.9 mph N/A   Clear
4:53 PM 70.0 °F 8.1 °F 9% 29.98 in 10.0 mi NW 16.1 mph 29.9 mph N/A   Clear
5:53 PM 69.1 °F 10.9 °F 11% 29.99 in 10.0 mi NW 12.7 mph 28.8 mph N/A   Clear
6:53 PM 68.0 °F 12.0 °F 11% 30.01 in 10.0 mi NW 11.5 mph 24.2 mph N/A   Clear
7:53 PM 64.0 °F 10.9 °F 13% 30.03 in 10.0 mi NNW 10.4 mph - N/A   Clear
8:53 PM 59.0 °F 10.9 °F 15% 30.06 in 10.0 mi NNW 9.2 mph - N/A   Clear
9:53 PM 55.0 °F 8.1 °F 15% 30.08 in 10.0 mi NW 13.8 mph - N/A   Clear
10:53 PM 54.0 °F 7.0 °F 15% 30.10 in 10.0 mi NNW 11.5 mph - N/A   Clear
11:53 PM 53.1 °F 5.0 °F 14% 30.10 in 10.0 mi NW 9.2 mph 17.3 mph N/A   Clear